x

Wainfleet (03392) Weather Station

3:00 - Wed 1st Apr 2015 All times are BST. 1 hours from GMT.

  • Wind
    29mph, 41mph gusts
  • Air Temp 49°f
  • Sea Pressure 1019mb
  • Wainfleet
  • Wainfleet

More Historic Weather Station data

Upgrade to MSW Pro to gain access to the past 30 days of data for over 8000 Wavebouys and Weather Stations around the globe.

Join Pro

Comparision Forecast

View Surf forecast
   
mer. 04/01 3:00 29 41 mph 1019mb 49f
2:00 30 39 mph 1019mb 49f
1:00 28 38 mph 1019mb 49f
12:00 23 36 mph 1020mb 47f
11:00 30 41 mph 1020mb 47f
10:00 25 36 mph 1019mb 45f
9:00 23 36 mph 1019mb 43f
8:00 24 33 mph 1018mb 41f
7:00 15
mph
1017mb 38f
6:00 15 30 mph 1017mb 36f
5:00 19 31 mph 1016mb 38f
4:00 23 31 mph 1016mb 39f
3:00 24 33 mph 1014mb 39f
2:00 22 37 mph 1014mb 38f
1:00 21 32 mph 1013mb 38f
12:00 23 43 mph 1012mb 38f
mar. 03/31 11:00 28 39 mph 1011mb 40f
10:00 24 38 mph 1011mb 39f
9:00 28 36 mph 1011mb 39f
8:00 26 38 mph 1010mb 40f
7:00 28 51 mph 1009mb 44f
6:00 38 52 mph 1008mb 46f
5:00 26 59 mph 1007mb 42f
4:00 34 60 mph 1006mb 46f
3:00 38 54 mph 1005mb 49f
2:00 29 48 mph 1005mb 47f
1:00 26 56 mph 1004mb 48f
12:00 36 56 mph 1003mb 50f
11:00 36 49 mph 1001mb 49f
10:00 38 52 mph 1000mb 47f
9:00 34 53 mph 998mb 47f
8:00 37 51 mph 995mb 46f
7:00 33 56 mph 993mb 46f
6:00 40 61 mph 990mb 47f
5:00 31 55 mph 989mb 48f
4:00 38 55 mph 989mb 49f
3:00 34 54 mph 988mb 50f
2:00 37 48 mph 987mb 52f
1:00 30 43 mph 987mb 51f
12:00 22 34 mph 990mb 48f
lun. 03/30 11:00 26 33 mph 992mb 46f
10:00 25 34 mph 995mb 45f
9:00 25 32 mph 997mb 44f
8:00 23 30 mph 1000mb 44f
7:00 18 32 mph 1002mb 45f
6:00 19 31 mph 1004mb 47f
5:00 18
mph
1005mb 48f
4:00 17 30 mph 1007mb 49f
3:00 21 30 mph 1007mb 48f
2:00 18 30 mph 1008mb 49f
1:00 24 32 mph 1008mb 47f
12:00 24 33 mph 1008mb 47f
11:00 21 36 mph 1007mb 46f
10:00 24 33 mph 1006mb 44f
9:00 24 36 mph 1005mb 42f
8:00 22 31 mph 1004mb 40f
7:00 21 29 mph 1002mb 39f
6:00 24 34 mph 1001mb 39f
5:00 16
mph
1000mb 38f
4:00 19
mph
999mb 38f
3:00 21 29 mph 999mb 40f
2:00 18 30 mph 998mb 41f
1:00 14
mph
997mb 40f
12:00 13
mph
997mb 41f
dim. 03/29 11:00 16
mph
996mb 42f
10:00 21 29 mph 995mb 43f
9:00 19 33 mph 995mb 44f
7:00 21 40 mph 993mb 47f
6:00 26 43 mph 992mb 48f
5:00 29 47 mph 991mb 49f
4:00 25 34 mph 989mb 51f
3:00 18 40 mph 988mb 50f
2:00 23 37 mph 986mb 51f
1:00 18
mph
986mb 51f
12:00 10
mph
989mb 46f
11:00 17
mph
992mb 47f
10:00 16
mph
994mb 47f
9:00 16
mph
996mb 48f
8:00 15
mph
997mb 47f
7:00 11
mph
998mb 47f
6:00 16
mph
998mb 46f
5:00 16
mph
999mb 46f
4:00 18
mph
1000mb 48f
3:00 19 29 mph 1000mb 49f
2:00 21
mph
1000mb 49f
1:00 17 29 mph 1000mb 49f
12:00 17
mph
1000mb 48f
sam. 03/28 11:00 19
mph
1001mb 50f
10:00 21 29 mph 1000mb 51f
9:00 21 31 mph 1001mb 53f
8:00 24 36 mph 1001mb 54f
7:00 22 38 mph 1001mb 56f
6:00 24 37 mph 1000mb 58f
5:00 24 34 mph 1001mb 58f
4:00 26 44 mph 1002mb 57f